Dewpoint
20 23 25 22 23 24 22 23 21 21 22 22 22 20 20 24 25 25 32 40 40 40 43 46 46 46 42 39 36 35 35 35 35 35 31 29 29 30 31 29 28 29 29 31
25 28 25 22 23 22 22 20 19 20 21 23 22 23 22 22 22 25 28 31 39 44 45 45 45 42 40 36 36 36 35 32 29 29 29 32 30 29 29 29 29 30 30 30
26 25 22 21 21 20 21 22 20 17 22 24 22 24 25 25 29 28 30 32 37 42 44 44 42 40 37 36 37 35 29 27 27 29 29 28 27 26 25 26 28 29 29 29
26 23 20 23 18 14 16 19 19 19 21 23 24 30 30 31 30 30 32 33 36 38 40 40 40 37 37 33 29 29 27 28 28 27 26 26 26 25 26 28 29 28 28 28
25 20 24 22 18 19 18 22 24 24 25 26 25 31 34 33 31 31 32 34 37 39 38 36 33 30 29 29 27 28 27 25 27 27 26 26 26 28 28 28 29 28 27 28
31 23 18 24 21 23 21 23 29 28 28 31 32 31 35 35 35 36 36 36 34 30 29 28 29 27 28 27 26 27 27 27 28 28 27 28 28 28 28 28 27 28 28 29
25 21 27 29 24 25 16 25 30 31 32 32 33 37 37 35 36 33 30 30 30 30 31 31 31 30 29 29 27 28 29 29 29 29 28 28 27 27 25 26 26 27 28 28
34 28 22 25 24 23 32 33 34 34 34 33 35 35 36 36 31 29 29 29 30 30 29 29 28 28 27 27 27 28 30 30 29 30 30 29 27 27 27 26 26 27 26 28
31 31 34 31 36 38 37 36 37 38 39 39 39 39 35 31 32 33 33 33 33 32 31 27 26 27 27 27 27 29 29 30 31 30 29 28 26 26 27 27 26 25 26 26
27 31 31 39 39 39 40 39 38 36 36 37 36 32 32 33 34 33 34 33 33 32 30 28 26 25 28 28 29 29 28 28 28 28 28 28 28 28 27 27 25 26 26 26
29 38 39 37 39 38 37 37 34 34 34 34 34 34 34 33 33 32 30 30 29 28 27 25 28 28 29 28 28 26 26 27 27 28 28 29 30 28 27 27 26 25 25 26
32 39 37 35 35 35 34 35 34 35 35 35 34 33 33 32 31 30 30 28 28 28 29 29 29 26 25 25 25 25 26 26 26 27 28 28 28 27 28 27 28 29 28 28
39 38 36 35 36 36 35 35 35 35 35 33 33 32 31 30 29 30 30 29 28 28 27 25 24 24 25 26 26 25 24 25 26 27 27 27 27 27 26 27 29 29 29 29
38 36 35 36 34 35 34 34 33 33 33 32 32 32 31 30 30 30 29 26 24 24 24 25 25 25 26 27 27 26 26 27 27 27 28 28 28 28 28 27 26 25 27 28
36 37 35 35 34 33 33 33 32 32 33 32 32 31 30 27 25 26 28 28 27 27 28 28 27 27 29 30 30 29 28 28 28 28 29 29 30 30 31 30 27 27 28 28
35 34 34 33 32 32 32 32 32 32 30 27 27 27 27 28 28 30 31 31 29 27 28 28 29 31 31 32 31 31 32 32 31 30 30 30 30 30 30 30 30 30 29 28
33 32 32 31 31 31 32 31 29 28 28 27 28 29 29 29 29 27 27 28 27 27 29 31 27 26 26 24 23 23 25 27 27 27 27 28 29 29 30 30 30 29 29 27
34 33 33 33 32 30 29 29 29 28 28 28 28 27 26 23 24 26 25 26 24 25 22 24 22 22 21 23 24 24 25 24 23 22 23 24 24 27 29 29 28 27 26 26
33 32 32 31 30 29 30 30 28 27 27 27 24 25 24 22 24 23 22 21 21 19 21 21 20 21 22 21 18 16 18 20 22 22 23 24 26 26 28 28 28 27 27 26
30 31 30 30 30 30 30 29 26 23 24 23 19 15 16 18 18 17 18 20 20 20 20 18 21 16 14 14 16 19 22 22 22 24 25 24 25 25 26 28 27 25 25 25
29 29 28 28 27 26 24 23 23 21 22 17 14 13 16 16 17 17 19 19 21 16 16 18 17 12 11 14 18 18 17 18 18 19 20 20 21 22 22 21 20 20 20 19
30 29 28 26 23 23 23 21 20 17 16 17 15 15 16 17 17 17 18 18 19 16 16 19 16 11 11 14 14 14 14 15 13 14 14 16 17 17 18 18 17 16 16 16
30 29 28 25 21 18 19 20 16 12 14 16 15 16 15 17 17 17 16 18 17 16 15 18 15 11 10 12 12 11 11 12 9 10 11 12 12 13 13 12 12 12 13 13
28 25 22 21 21 17 12 12 18 14 14 17 15 14 15 16 15 17 19 17 15 15 14 15 15 12 10 9 10 9 8 8 8 7 8 8 9 9 9 9 9 10 10 9
23 22 21 19 16 14 12 14 16 15 15 17 15 13 15 18 15 15 15 15 15 14 13 13 12 13 10 9 9 8 8 7 6 7 6 5 6 5 6 7 7 8 8 8
19 16 15 14 15 14 14 16 16 14 15 15 13 9 12 18 15 14 12 12 13 14 11 11 10 10 10 8 7 7 7 5 4 6 4 2 3 2 3 4 5 6 6 7
18 18 15 14 15 15 15 16 12 12 15 11 8 9 14 15 14 12 10 8 8 12 9 10 8 7 5 8 5 6 5 2 1 4 0 0 0 0 1 2 3 4 4 4
Wind_Speed
7 10 9 4 3 7 12 10 12 16 15 16 15 6 7 13 6 4 8 17 21 22 19 19 20 17 18 21 22 20 16 12 10 10 11 11 9 5 4 3 2 6 9 10
3 6 9 7 7 8 15 13 9 8 8 9 6 10 12 12 10 11 12 10 10 18 21 21 22 21 20 21 21 17 13 9 16 16 11 11 1 2 1 5 7 5 3 5
5 5 6 10 14 13 15 12 9 8 6 17 20 17 12 13 16 10 12 15 7 14 18 20 21 23 24 21 19 15 17 17 14 11 8 4 2 2 6 8 7 5 6 10
4 3 6 12 2 6 12 15 16 17 16 16 15 20 20 18 19 19 16 14 11 7 8 16 19 20 20 21 21 19 17 16 15 11 5 2 6 6 9 7 7 8 8 8
7 9 5 12 2 3 5 10 13 16 16 15 10 17 17 16 15 13 12 12 12 16 18 20 21 21 24 20 20 19 17 18 16 12 11 7 7 8 8 9 9 9 9 7
5 5 8 6 5 4 3 4 10 14 14 16 14 8 5 13 17 18 23 23 25 24 24 24 19 21 23 20 22 19 17 15 13 11 6 7 10 10 6 8 12 10 6 6
8 5 7 6 8 1 4 5 8 11 11 11 8 4 5 9 20 23 25 25 26 29 27 22 21 25 24 22 19 18 15 10 1 4 9 9 8 8 12 13 12 14 12 10
5 3 9 9 5 4 8 10 13 12 11 10 9 10 7 17 21 23 24 24 24 27 24 20 20 23 20 19 13 10 4 6 10 6 8 11 15 16 14 12 14 14 9 8
11 8 5 16 22 16 18 15 12 13 14 11 13 12 21 22 25 23 23 22 20 22 19 16 15 16 14 10 8 5 3 4 8 10 13 13 14 12 11 13 14 16 11 10
7 5 14 19 18 18 18 18 20 18 15 12 14 23 20 20 20 20 18 18 16 17 14 11 7 9 9 5 4 3 4 8 10 12 12 9 11 12 13 12 7 9 11 13
8 19 22 16 15 18 19 20 22 24 23 19 24 20 19 19 18 16 15 13 11 10 10 11 11 7 4 4 4 6 7 10 12 10 11 12 10 9 6 7 8 12 13 14
7 8 16 12 15 19 22 20 17 19 20 19 19 18 16 15 12 12 11 11 12 10 7 4 5 5 6 6 7 10 12 10 12 13 14 13 14 17 12 13 16 17 17 16
8 17 24 21 21 19 21 18 18 20 17 17 15 16 16 15 13 12 10 7 4 5 6 6 6 7 10 11 12 11 14 15 15 16 17 18 18 18 20 15 19 18 20 20
21 27 17 7 14 17 20 19 20 19 17 17 16 14 13 12 8 6 4 6 9 10 11 12 11 12 12 11 11 12 16 19 18 18 18 19 19 19 19 19 19 17 14 18
18 18 23 23 21 18 17 17 18 17 14 13 9 8 8 11 13 15 15 14 12 12 12 13 15 18 16 17 17 17 17 17 18 19 18 20 19 18 17 19 19 17 17 13
21 21 21 22 21 18 17 14 16 13 13 12 15 15 14 14 14 14 14 15 13 12 12 13 14 15 15 16 18 17 16 18 18 17 17 18 18 19 16 13 14 17 18 17
24 19 20 20 19 17 16 16 15 15 14 15 12 11 13 14 14 14 14 13 10 10 11 9 14 16 15 16 18 17 18 18 19 18 19 20 19 19 17 13 12 14 13 16
17 17 17 22 20 20 17 17 16 15 13 11 11 12 13 12 10 10 12 13 14 14 17 16 18 18 18 18 19 19 18 19 20 21 21 21 21 22 21 15 15 16 16 16
22 21 18 17 20 19 16 17 17 14 13 12 14 13 9 9 10 11 13 15 16 15 15 15 18 17 18 19 22 19 19 20 23 22 20 22 20 22 22 13 14 13 15 17
23 22 22 20 19 19 18 17 17 17 13 14 13 13 12 13 13 14 12 11 13 12 15 18 15 17 19 20 22 17 18 19 23 25 21 20 22 23 24 11 2 7 10 11
19 19 20 21 19 18 17 16 16 14 11 13 15 15 12 11 13 14 12 10 11 14 14 13 15 16 17 20 17 18 19 21 21 21 20 21 21 19 18 16 14 14 12 12
16 17 18 17 17 16 14 14 15 13 11 11 12 11 11 10 12 11 9 12 9 14 11 10 12 18 19 19 16 18 19 18 18 19 20 21 20 19 16 15 14 14 14 15
15 15 16 17 16 16 13 12 13 12 11 11 10 11 11 9 9 10 9 9 8 11 11 9 14 18 18 15 15 16 17 17 17 18 18 18 18 17 16 16 16 16 16 16
15 15 15 15 15 13 13 9 10 11 12 9 12 12 10 8 7 9 7 8 10 12 12 13 13 15 14 13 12 13 14 15 16 16 16 17 16 16 16 16 16 15 15 16
15 13 12 14 14 12 11 9 11 11 10 9 11 10 12 6 7 7 10 11 11 11 11 12 14 13 12 13 12 12 12 13 14 13 15 16 16 16 16 16 16 16 14 15
15 14 15 15 13 11 9 9 10 10 8 7 8 11 12 6 7 8 11 12 13 11 12 11 12 11 11 12 12 13 12 13 14 11 13 14 15 15 15 16 16 15 15 15
14 14 14 13 11 10 9 10 8 6 5 6 7 11 10 7 8 11 12 13 14 11 11 9 11 11 13 10 13 11 11 13 14 10 14 13 13 14 15 16 16 16 16 16
Wind_Direction
307 319 340 287 290 298 310 251 205 241 230 259 278 158 59 199 197 181 175 204 197 184 163 152 155 150 136 136 139 143 144 162 183 191 123 124 113 119 138 111 252 266 267 281
272 341 4 351 323 296 296 299 314 320 270 248 132 79 70 70 63 70 57 41 118 144 153 158 151 151 147 143 137 139 142 134 115 113 87 46 108 189 301 281 272 277 301 304
226 2 353 290 269 262 261 279 293 299 31 66 55 53 46 52 56 61 74 63 89 144 163 164 156 150 146 141 139 133 119 115 110 88 78 134 80 357 305 277 248 251 286 294
170 104 246 250 259 108 89 60 74 69 68 74 62 55 56 67 71 55 50 50 65 110 120 137 131 126 124 120 115 111 101 87 70 56 78 95 35 312 286 303 274 262 268 281
173 201 290 307 133 147 131 57 51 61 42 39 36 70 38 30 54 48 45 49 64 79 93 94 99 108 106 105 100 92 83 76 66 53 28 345 309 339 303 291 287 279 277 269
158 188 215 231 150 54 76 111 45 57 46 41 47 67 23 26 28 50 55 61 76 74 74 77 80 86 88 83 81 78 72 63 44 25 345 320 288 269 272 307 295 293 244 216
168 209 269 199 149 167 180 169 72 65 59 51 62 107 153 74 71 73 79 76 74 69 71 70 74 81 79 79 76 74 68 61 9 272 258 263 296 285 270 274 278 285 277 244
124 170 249 171 120 157 141 85 73 64 57 49 35 26 43 91 90 83 82 79 78 78 72 68 72 79 79 77 79 84 106 217 241 272 331 297 275 273 263 266 277 275 258 244
179 205 197 88 101 89 91 78 54 59 58 69 55 34 84 82 75 76 81 81 79 85 83 78 84 98 111 151 158 151 232 317 324 289 270 270 280 288 289 283 275 272 240 254
127 165 106 88 78 77 76 73 70 63 53 53 60 95 88 83 80 79 77 79 85 88 95 110 113 83 81 63 31 16 293 274 273 278 284 296 302 298 298 294 291 260 261 262
118 113 87 59 73 89 76 74 78 64 60 73 89 79 89 87 85 86 92 101 98 85 71 60 42 21 335 295 269 275 280 286 285 288 294 293 292 300 309 300 279 283 271 268
180 104 116 97 81 87 81 71 82 84 71 66 83 93 95 93 95 90 79 65 61 55 44 1 330 346 342 317 285 277 277 276 284 287 284 277 280 286 274 282 294 285 280 277
128 107 106 101 81 78 87 81 79 83 85 85 74 85 86 88 83 81 76 77 61 17 12 13 345 308 288 274 265 244 253 267 267 268 271 272 268 260 269 268 245 250 265 267
114 112 107 114 110 97 97 96 93 92 93 96 100 99 106 107 109 96 70 55 47 24 5 355 358 346 339 340 332 292 272 263 261 262 261 261 259 257 251 257 272 279 256 260
80 96 114 115 111 109 105 107 101 103 107 101 93 93 86 77 65 59 55 39 31 20 2 350 343 336 334 330 324 316 306 292 278 267 262 260 261 259 250 258 259 267 276 269
104 108 111 112 113 115 116 112 110 108 93 79 69 58 55 59 58 49 45 27 17 351 340 345 353 351 355 351 347 339 330 321 318 311 301 289 276 266 256 254 265 267 269 263
117 120 124 128 132 125 111 103 100 99 91 81 74 62 55 51 47 32 17 8 359 339 343 12 12 357 350 345 337 328 322 314 311 311 306 297 287 279 266 260 264 275 269 273
127 126 120 119 119 110 102 99 94 89 86 87 81 72 62 48 31 17 356 348 3 48 23 16 1 353 348 346 353 347 336 324 316 308 304 301 298 294 280 250 257 262 274 277
114 116 112 106 108 107 105 103 96 90 87 90 78 75 73 44 28 11 0 17 50 25 6 1 349 356 4 356 344 331 318 312 308 300 297 297 292 298 275 247 246 257 275 278
92 91 93 94 91 100 103 105 99 84 77 86 84 63 51 33 19 14 18 56 41 25 4 357 18 7 352 345 338 329 324 337 342 339 301 296 293 291 278 230 46 33 24 5
102 103 102 101 99 93 94 97 99 93 92 87 69 51 39 31 17 26 35 39 33 10 0 5 19 3 357 347 348 356 351 355 359 348 350 356 9 14 17 32 44 34 23 15
113 117 117 113 106 100 101 103 105 100 91 89 73 59 47 28 32 17 58 40 24 9 7 17 16 10 2 357 359 359 353 3 -0 357 355 355 5 5 8 20 21 17 15 8
117 120 122 121 119 116 112 124 116 97 85 103 85 67 48 25 19 31 17 21 18 10 11 19 14 13 12 5 357 2 356 5 4 359 355 359 1 5 13 11 8 7 3 4
122 113 117 121 129 111 90 75 121 84 75 90 85 56 30 26 35 30 28 13 10 20 13 11 13 13 12 4 359 2 1 2 360 358 355 359 356 4 3 2 0 356 357 354
119 123 126 110 98 92 78 64 79 66 51 61 59 26 1 20 63 19 30 13 12 14 18 10 7 6 8 359 1 2 359 4 355 355 360 358 354 360 353 354 349 345 349 343
111 101 93 88 91 85 71 65 72 48 36 49 30 359 350 25 39 41 33 22 11 12 11 3 10 10 359 360 2 7 6 7 356 358 8 357 353 351 345 345 342 345 343 338
85 110 104 88 74 72 55 70 54 11 27 56 2 341 338 31 44 48 33 21 8 5 4 13 9 13 1 1 3 14 18 7 352 8 9 356 349 342 339 338 338 336 337 340